Location: C.E.K. Mees Observatory
(42.7003°N, 77.4088°W)
Time: 18:54:36
(UTC-05:00)

OTV 5 (USA 277) - Pass Details

Date: 16 October 2017
Orbit: 404 x 417 km, 43.0° (Epoch: 07 September)

Event Time Altitude Azimuth Distance (km) Brightness Sun altitude
Rises 19:27:47 0° 271° (W) 2,352 ? -12.2°
Reaches altitude 10° 19:29:53 10° 272° (W) 1,489 ? -12.6°
Maximum altitude 19:33:16 83° 360° (N) 423 ? -13.2°
Enters shadow 19:35:01 26° 86° (E) 853 ? -13.6°
